Change the Weather History Date:

Monday, April 15, 2013

  Actual Average Record
Temperature  
Mean Temperature 40 °F -  
Max Temperature 46 °F 57 °F 81 °F (1985)
Min Temperature 33 °F 35 °F 28 °F (1999)
Degree Days  
Heating Degree Days 26    
Moisture  
Dew Point 31 °F    
Average Humidity 77    
Maximum Humidity 100    
Minimum Humidity 46    
Precipitation  
Precipitation 0.07 in - - ()
Sea Level Pressure  
Sea Level Pressure 29.69 in    
Wind  
Wind Speed 7 mph (NNW)    
Max Wind Speed 21 mph    
Max Gust Speed 25 mph    
Visibility 10 miles    
Events Rain    
Averages and records for this station are not official NWS values.
T = Trace of Precipitation, MM = Missing Value Source: NWS Daily Summary

Daily Weather History Graph

Daily Weather History Graph

Search for Another Location

Airport or City:

Trip Planner

Search our weather history database for the weather conditions in past years. The results will help you decide how hot, cold, wet, or windy it might be!

Date:

Astronomy

Apr. 15, 2013 Rise Set
Actual Time 6:48 AM MDT 8:06 PM MDT
Civil Twilight 6:20 AM MDT 8:34 PM MDT
Nautical Twilight 5:46 AM MDT 9:08 PM MDT
Astronomical Twilight 5:11 AM MDT 9:43 PM MDT
Moon 10:17 AM MDT (4/15) 12:21 AM MDT (4/15)
Length of Visible Light 14h 14m
Length of Day
13h 17m
Waxing Crescent, 25% of the Moon is Illuminated
Apr 15
Waxing Crescent
Apr 18
First Quarter
Apr 25
Full
May 2
Last Quarter
May 9
New

Hourly Weather History & Observations

Time (MDT) Temp. Windchill Dew Point Humidity Pressure Visibility Wind Dir Wind Speed Gust Speed Precip Events Conditions
12:15 AM 41.0 °F - 26.6 °F 57% 29.66 in 10.0 mi Calm Calm - N/A   Overcast
12:35 AM 42.8 °F - 23.0 °F 46% 29.65 in 10.0 mi Calm Calm - N/A   Overcast
12:55 AM 42.8 °F 38.0 °F 26.6 °F 53% 29.64 in 10.0 mi East 8.1 mph - N/A   Overcast
1:15 AM 39.2 °F 31.6 °F 30.2 °F 70% 29.64 in 10.0 mi North 12.7 mph - N/A   Overcast
1:35 AM 35.6 °F 28.6 °F 32.0 °F 87% 29.65 in 10.0 mi North 9.2 mph - N/A   Overcast
1:55 AM 35.6 °F 28.6 °F 33.8 °F 93% 29.64 in 10.0 mi North 9.2 mph - N/A   Overcast
2:15 AM 33.8 °F 27.7 °F 33.8 °F 100% 29.65 in 10.0 mi NNE 6.9 mph - N/A   Overcast
2:35 AM 33.8 °F 28.6 °F 33.8 °F 100% 29.65 in 8.0 mi North 5.8 mph - N/A   Overcast
2:55 AM 33.8 °F 27.0 °F 30.2 °F 87% 29.65 in 6.0 mi NNW 8.1 mph - N/A   Overcast
3:15 AM 35.6 °F 25.9 °F 33.8 °F 93% 29.67 in 10.0 mi NNW 16.1 mph - 0.01 in   Overcast
3:35 AM 33.8 °F 23.9 °F 30.2 °F 87% 29.67 in 6.0 mi NNW 15.0 mph 24.2 mph 0.02 in   Overcast
3:55 AM 33.8 °F 23.5 °F 32.0 °F 93% 29.69 in 10.0 mi NNW 16.1 mph 23.0 mph 0.03 in   Overcast
4:15 AM 33.8 °F 27.0 °F 30.2 °F 87% 29.69 in 3.0 mi North 8.1 mph - 0.01 in   Overcast
4:35 AM 33.8 °F 30.8 °F 32.0 °F 93% 29.70 in 3.0 mi North 3.5 mph - 0.02 in   Overcast
4:55 AM 33.8 °F 29.6 °F 32.0 °F 93% 29.70 in 3.0 mi SE 4.6 mph - 0.03 in   Overcast
5:15 AM 33.8 °F 27.7 °F 32.0 °F 93% 29.70 in 7.0 mi South 6.9 mph - N/A   Overcast
5:35 AM 33.8 °F 27.0 °F 33.8 °F 100% 29.70 in 10.0 mi South 8.1 mph - 0.01 in   Overcast
5:55 AM 33.8 °F 27.0 °F 33.8 °F 100% 29.70 in 10.0 mi SSE 8.1 mph - 0.01 in   Overcast
6:15 AM 33.8 °F 25.8 °F 33.8 °F 100% 29.69 in 10.0 mi SE 10.4 mph - N/A   Overcast
6:35 AM 33.8 °F 26.4 °F 33.8 °F 100% 29.68 in 10.0 mi SE 9.2 mph - N/A   Overcast
6:50 AM 33.8 °F 28.6 °F 32.0 °F 93% 29.69 in 10.0 mi Variable 5.8 mph - N/A Rain Rain
6:55 AM 33.8 °F 28.6 °F 33.8 °F 100% 29.69 in 10.0 mi South 5.8 mph - N/A   Mostly Cloudy
7:50 AM 35.6 °F 30.7 °F 33.8 °F 93% 29.71 in 10.0 mi Variable 5.8 mph - N/A   Overcast
8:50 AM 35.6 °F 31.7 °F 33.8 °F 93% 29.72 in 10.0 mi Variable 4.6 mph - N/A   Overcast
9:50 AM 37.4 °F 32.8 °F 35.6 °F 93% 29.73 in 10.0 mi Variable 5.8 mph - N/A   Overcast
10:50 AM 41.0 °F 37.1 °F 35.6 °F 81% 29.74 in 10.0 mi Variable 5.8 mph - N/A   Mostly Cloudy
11:50 AM 44.6 °F 39.7 °F 35.6 °F 71% 29.73 in 10.0 mi SE 9.2 mph - N/A   Mostly Cloudy
12:50 PM 44.6 °F 39.7 °F 32.0 °F 61% 29.73 in 10.0 mi SSE 9.2 mph - N/A   Overcast
1:50 PM 46.4 °F 39.8 °F 35.6 °F 66% 29.73 in 15.0 mi SE 16.1 mph - N/A   Overcast
2:48 PM 46.4 °F 41.9 °F 35.6 °F 66% 29.73 in 15.0 mi SSE 9.2 mph - N/A   Mostly Cloudy
3:49 PM 44.6 °F 43.1 °F 33.8 °F 66% 29.72 in 15.0 mi West 3.5 mph - N/A   Mostly Cloudy
4:48 PM 46.4 °F 42.9 °F 32.0 °F 57% 29.70 in 15.0 mi WNW 6.9 mph - N/A   Scattered Clouds
5:53 PM 46.4 °F 41.5 °F 30.2 °F 53% 29.69 in 15.0 mi WNW 10.4 mph - N/A   Mostly Cloudy
6:56 PM 44.6 °F 38.1 °F 28.4 °F 53% 29.69 in 15.0 mi NW 13.8 mph - N/A   Mostly Cloudy
7:49 PM 44.6 °F 40.7 °F 26.6 °F 49% 29.64 in 15.0 mi NW 6.9 mph - N/A   Mostly Cloudy
8:49 PM 42.8 °F 34.8 °F 28.4 °F 57% 29.63 in 15.0 mi NW 17.3 mph - N/A   Mostly Cloudy
9:15 PM 42.8 °F 34.0 °F 28.4 °F 57% 29.66 in 10.0 mi NW 20.7 mph 25.3 mph N/A   Overcast
9:35 PM 42.8 °F 34.3 °F 26.6 °F 53% 29.67 in 10.0 mi NW 19.6 mph 25.3 mph N/A   Mostly Cloudy
9:55 PM 42.8 °F 35.1 °F 26.6 °F 53% 29.67 in 10.0 mi NNW 16.1 mph - N/A   Overcast
10:15 PM 42.8 °F 36.2 °F 26.6 °F 53% 29.69 in 10.0 mi NW 12.7 mph - N/A   Overcast
10:35 PM 42.8 °F 37.5 °F 26.6 °F 53% 29.68 in 10.0 mi ENE 9.2 mph - N/A   Overcast
10:55 PM 39.2 °F 33.0 °F 32.0 °F 75% 29.70 in 10.0 mi SSE 9.2 mph - N/A   Overcast
11:15 PM 39.2 °F 34.2 °F 33.8 °F 81% 29.69 in 10.0 mi South 6.9 mph - N/A   Mostly Cloudy
11:35 PM 39.2 °F 35.9 °F 30.2 °F 70% 29.69 in 10.0 mi SSW 4.6 mph - N/A   Overcast
11:55 PM 39.2 °F 35.9 °F 30.2 °F 70% 29.70 in 10.0 mi WNW 4.6 mph - N/A   Overcast